This demonstration page uses our WeatherBlox Daily Observations layout. Learn more.

Left ArrowRight Arrow

39.92423, -83.80882

Hourly Observations for January 16, 2017

Temp ( °F °C ) Dew Point ( °F °C ) Humidity (%) Winds ( mph kmh ) Pressure ( in mb ) Visibility ( mi km ) Precip ( " mm )
12:17 am 00:17 Mostly Cloudy with Mist and Fog 32 0 30 -1 93 93 ENE 3 6 30.36 1028 3 4.82802 0 0
12:35 am 00:35 Cloudy with Mist and Fog 32 0 30 -1 93 93 E 8 13 30.36 1028 2.5 4.02335 0 0
12:52 am 00:52 Partly Cloudy with Mist and Fog 32 0 30 -1 93 93 E 7 11 30.36 1028 2.5 4.02335 0 0
12:56 am 00:56 Partly Cloudy with Mist and Fog 32 0 31 -0.6 96 96 E 7 11 30.34 1028 2.5 4.02335 0 0
1:10 am 01:10 Mostly Cloudy with Mist and Fog 32 0 30 -1 93 93 ESE 9 15 30.36 1028 3 4.82802 0 0
1:26 am 01:26 Mostly Cloudy with Mist and Fog 32 0 30 -1 93 93 ESE 7 11 30.36 1028 3 4.82802 0 0
1:43 am 01:43 Mostly Cloudy with Mist and Fog 32 0 30 -1 93 93 ESE 5 7 30.36 1028 3 4.82802 0 0
1:56 am 01:56 Cloudy with Mist and Fog 32 0 32 0 100 100 SE 7 11 30.35 1028 3 4.82802 0 0
2:14 am 02:14 Cloudy with Mist and Fog 34 1 32 0 93 93 E 7 11 30.36 1028 3 4.82802 0 0
2:23 am 02:23 Cloudy with Mist and Fog 34 1 32 0 93 93 E 7 11 30.36 1028 3 4.82802 0 0
2:30 am 02:30 Cloudy with Mist and Fog 34 1 32 0 93 93 E 7 11 30.36 1028 2.5 4.02335 0 0
2:48 am 02:48 Cloudy with Mist and Fog 34 1 32 0 93 93 E 7 11 30.36 1028 3 4.82802 0 0
2:56 am 02:56 Cloudy with Mist and Fog 33 0.6 32 0 96 96 ESE 8 13 30.34 1027 3 4.82802 0 0
3:56 am 03:56 Cloudy with Mist and Fog 33 0.6 32 0 96 96 E 8 13 30.34 1028 3 4.82802 0 0
4:21 am 04:21 Cloudy with Mist and Fog 34 1 32 0 93 93 E 7 11 30.36 1028 3 4.82802 0 0
4:33 am 04:33 Cloudy with Mist and Fog 34 1 32 0 93 93 E 8 13 30.36 1028 3 4.82802 0 0
4:47 am 04:47 Cloudy with Mist and Fog 34 1 32 0 93 93 E 9 15 30.36 1028 2.5 4.02335 0 0
4:54 am 04:54 Cloudy with Mist and Fog 34 1 32 0 93 93 E 8 13 30.36 1028 3 4.82802 0 0
4:56 am 04:56 Cloudy with Mist and Fog 33 0.6 32 0 96 96 E 8 13 30.32 1027 3 4.82802 0 0
5:05 am 05:05 Cloudy with Mist and Fog 34 1 32 0 93 93 E 8 13 30.33 1027 3 4.82802 0 0
5:56 am 05:56 Cloudy with Mist and Fog 34 1.1 32 0 92 92 SE 6 9 30.33 1027 4 6.43736 0 0
6:56 am 06:56 Cloudy with Mist and Fog 34 1.1 33 0.6 97 97 ESE 7 11 30.33 1027 4 6.43736 0 0
7:56 am 07:56 Cloudy with Mist and Fog 35 1.7 33 0.6 93 93 ESE 7 11 30.33 1027 2.5 4.02335 0 0
8:24 am 08:24 Cloudy with Mist and Fog 36 2 34 1 93 93 ESE 7 11 30.36 1028 2.5 4.02335 0 0
8:56 am 08:56 Cloudy with Light Rain 36 2.2 34 1.1 93 93 ESE 7 11 30.32 1027 2.5 4.02335 0 0.0254
9:12 am 09:12 Cloudy with Light Rain 36 2 36 2 100 100 ESE 8 13 30.36 1028 2 3.21868 0 0.0254
9:21 am 09:21 Cloudy with Mist and Fog 36 2 36 2 100 100 ESE 8 13 30.36 1028 2 3.21868 0 0.0254
9:25 am 09:25 Cloudy with Mist and Fog 36 2 36 2 100 100 ESE 8 13 30.36 1028 2 3.21868 0 0.0254
9:56 am 09:56 Cloudy with Light Rain 37 2.8 36 2.2 96 96 SE 8 13 30.32 1027 2 3.21868 0 0.0254
10:38 am 10:38 Cloudy with Mist and Fog 39 4 37 3 93 93 SE 8 13 30.36 1028 3 4.82802 0 0.0254
10:47 am 10:47 Cloudy with Mist and Fog 39 4 37 3 93 93 SE 8 13 30.36 1028 3 4.82802 0 0.0254
10:56 am 10:56 Cloudy with Mist and Fog 40 4.4 38 3.3 93 93 SE 9 15 30.32 1027 3 4.82802 0 0.0254
11:56 am 11:56 Cloudy with Mist and Fog 42 5.6 41 5 96 96 SSE 9 15 30.29 1026 6 9.65604 0 0
12:22 pm 12:22 Cloudy 43 6 41 5 93 93 SSE 7 11 30.27 1025 8 12.87472 0 0
12:56 pm 12:56 Cloudy 44 6.7 42 5.6 93 93 SSE 7 11 30.26 1025 7 11.26538 0 0
1:56 pm 13:56 Cloudy 46 7.8 43 6.1 89 89 S 6 9 30.23 1024 10 16.0934 0 0
2:56 pm 14:56 Cloudy 47 8.3 44 6.7 90 90 SSE 8 13 30.2 1023 10 16.0934 0 0
3:26 pm 15:26 Cloudy 46 8 45 7 93 93 ESE 6 9 30.21 1023 10 16.0934 0 0
3:43 pm 15:43 Cloudy 46 8 45 7 93 93 SE 7 11 30.21 1023 10 16.0934 0 0
3:52 pm 15:52 Cloudy 46 8 45 7 93 93 ESE 8 13 30.21 1023 9 14.48406 0 0
3:56 pm 15:56 Cloudy 47 8.3 45 7.2 93 93 SE 8 13 30.19 1023 9 14.48406 0 0
4:53 pm 16:53 Cloudy with Mist and Fog 46 8 45 7 93 93 SE 8 13 30.18 1022 6 9.65604 0 0
4:56 pm 16:56 Cloudy with Mist and Fog 47 8.3 45 7.2 93 93 ESE 8 13 30.19 1022 6 9.65604 0 0
5:38 pm 17:38 Cloudy with Mist and Fog 46 8 46 8 100 100 SE 9 15 30.21 1023 2.5 4.02335 0 0
5:56 pm 17:56 Cloudy with Mist and Fog 46 7.8 46 7.8 100 100 SE 8 13 30.19 1023 2.5 4.02335 0 0
6:18 pm 18:18 Cloudy with Mist and Fog 46 8 45 7 93 93 ESE 7 11 30.21 1023 4 6.43736 0 0
6:40 pm 18:40 Cloudy with Mist and Fog 46 8 45 7 93 93 SE 8 13 30.18 1022 5 8.0467 0 0
6:56 pm 18:56 Cloudy with Mist and Fog 45 7.2 44 6.7 97 97 SE 8 13 30.19 1022 6 9.65604 0 0
7:56 pm 19:56 Cloudy with Rain 45 7.2 44 6.7 97 97 SE 6 9 30.19 1022 4 6.43736 0.03 0.762
8:56 pm 20:56 Cloudy with Light Rain 45 7.2 44 6.7 97 97 SE 9 15 30.16 1021 3 4.82802 0.07 1.778
9:56 pm 21:56 Cloudy with Light Rain 46 7.8 46 7.8 100 100 SE 9 15 30.12 1020 4 6.43736 0.03 0.762
10:15 pm 22:15 Cloudy with Light Rain 46 8 46 8 100 100 SE 9 15 30.12 1020 4 6.43736 0 0.0254
10:49 pm 22:49 Cloudy with Mist and Fog 46 8 46 8 100 100 ESE 9 15 30.09 1019 5 8.0467 0.01 0.254
10:56 pm 22:56 Cloudy with Mist and Fog 47 8.3 46 7.8 97 97 ESE 7 11 30.09 1019 4 6.43736 0.01 0.254
11:56 pm 23:56 Cloudy with Mist and Fog 47 8.3 47 8.3 100 100 SE 10 17 30.06 1018 5 8.0467 0 0

Powered by AerisWeather